Regional Weather Roundup
Issued by NWS

Home | Current Version | Previous Version | Text Only | Print | Product List | Glossary Off
Versions: 1 2 3 4 5 6 7 8 9 10 11 12 13 14 15 16 17 18 19 20 21 22 23 24 25 26 27 28 29 30 31 32 33 34 35 36 37 38 39 40 41 42 43 44 45 46 47 48 49 50

000
ASUS43 KTOP 031208
RWRKS

WEATHER ROUNDUP FOR KANSAS
NATIONAL WEATHER SERVICE GOODLAND KS
700 AM CDT THU SEP 03 2015

NOTE:  "FAIR" INDICATES FEW OR NO CLOUDS BELOW 12,000 FEET WITH NO
SIGNIFICANT WEATHER AND/OR OBSTRUCTIONS TO VISIBILITY.

KSZ001>006-013>018-027>032-041>047-031300-
NORTHWEST KANSAS

CITY           SKY/WX    TMP DP  RH WIND       PRES   REMARKS
GOODLAND       CLEAR     60  53  77 W6        29.88S
6HR MIN TEMP:  59; 6HR MAX TEMP:  77;

HAYS           CLEAR     72  55  56 S9        29.87S
HILL CITY      CLEAR     72  58  61 S7        29.84S
6HR MIN TEMP:  72; 6HR MAX TEMP:  83;

RUSSELL        PTCLDY    74  60  61 S20       29.85S
6HR MIN TEMP:  74; 6HR MAX TEMP:  79;

$$

KSZ061>065-074>080-084>089-031300-
SOUTHWEST KANSAS

CITY           SKY/WX    TMP DP  RH WIND       PRES   REMARKS
DODGE CITY     CLEAR     70  56  61 S14       29.91R
6HR MIN TEMP:  69; 6HR MAX TEMP:  75;

ELKHART          N/A     68  52  56 SW9         N/A
GARDEN CITY    CLEAR     65  57  75 SE9       29.88S
6HR MIN TEMP:  64; 6HR MAX TEMP:  74;

GREAT BEND     CLEAR     72  57  60 S15       29.89R
LIBERAL        PTCLDY    66  54  63 S9        29.92R
PRATT          CLEAR     70  59  68 MISG      29.93S
$$

KSZ066>073-081>083-090>101-031300-
SOUTHEAST KANSAS

CITY           SKY/WX    TMP DP  RH WIND       PRES   REMARKS
CHANUTE        CLEAR     68  66  93 S6        29.97R
6HR MIN TEMP:  68; 6HR MAX TEMP:  72;

COFFEYVILLE    CLEAR     68  67  96 S5        29.97R
6HR MIN TEMP:  68; 6HR MAX TEMP:  73;

HUTCHINSON     CLEAR     72  61  68 SE8       29.92R
6HR MIN TEMP:  72; 6HR MAX TEMP:  77;

MEDICINE LODGE   N/A     73  61  65 SE7       29.92R
NEWTON         PTCLDY    70  57  64 S10       29.96S
PARSONS        CLEAR     70  68  93 CALM      29.98R
6HR MIN TEMP:  70; 6HR MAX TEMP:  73;

WICHITA INTL   MOCLDY    71  63  75 S10       29.93S
6HR MIN TEMP:  71; 6HR MAX TEMP:  77;

WICHITA JABRA  PTCLDY    71  63  75 S10       29.94R
6HR MIN TEMP:  69; 6HR MAX TEMP:  75;

WICHITA MCCONL PTCLDY    72  60  66 S12       29.94S
WINFIELD       PTCLDY    70  64  81 S8        29.96S
6HR MIN TEMP:  69; 6HR MAX TEMP:  76;

$$

KSZ007>012-019>026-033>040-048>060-102>105-031300-
NORTHEAST KANSAS

CITY           SKY/WX    TMP DP  RH WIND       PRES   REMARKS
CONCORDIA      PTCLDY    74  61  63 S17G25    29.85S
6HR MIN TEMP:  74; 6HR MAX TEMP:  78;

EMPORIA        PTCLDY    70  66  87 S13       29.94R
6HR MIN TEMP:  70; 6HR MAX TEMP:  73;

LAWRENCE       PTCLDY    71  67  87 SE7       29.94R
6HR MIN TEMP:  71; 6HR MAX TEMP:  76;

MANHATTAN      PTCLDY    75  64  68 S7        29.89R
6HR MIN TEMP:  74; 6HR MAX TEMP:  79;

MARYSVILLE     PTCLDY    73  64  73 S8        29.88S
OLATHE IND     PTCLDY    71  67  87 S8        29.96S
6HR MIN TEMP:  70; 6HR MAX TEMP:  74;

OLATHE EXE     PTCLDY    70  67  90 S6        29.95S
6HR MIN TEMP:  69; 6HR MAX TEMP:  73;

SALINA         PTCLDY    76  61  59 S16G23    29.88R
6HR MIN TEMP:  76; 6HR MAX TEMP:  81;

TOPEKA BILLARD MOCLDY    74  67  78 S5        29.93R
6HR MIN TEMP:  73; 6HR MAX TEMP:  77;

TOPEKA FORBES  PTCLDY    74  67  78 S9        29.93R
6HR MIN TEMP:  74; 6HR MAX TEMP:  76;

$$



USA.gov is the U.S. government's official web portal to all federal, state and local government web resources and services.